PROFILE

 METAR AND TAF INFORMATION
ADDS - METARS form results

(0054 UTC 20 February 2020)
http://aviationweather.gov/metar/data/
 
EGLL 200050Z AUTO 22012KT 9999 FEW014/// SCT021/// OVC037/// 09/07 Q1013
EGLL 200020Z AUTO 23012KT 9000 -RA BKN014/// OVC027/// 09/07 Q1013
TAF AMD EGLL 200009Z 2000/2106 22012KT 9999 FEW018 BKN035 TEMPO 2000/2010 4000 RADZ BKN014 PROB30 TEMPO 2000/2006 21015G25KT BECMG 2006/2009 20015G25KT TEMPO 2010/2015 21020G35KT 6000 RA BKN012 PROB40 TEMPO 2011/2014 4000 +RA BECMG 2013/2016 27020G30KT PROB40 TEMPO 2015/2018 6000 SHRA BKN014 BECMG 2017/2020 26012KT CAVOK 

 AIRPORT MAP

 RUNWAY INFORMATION
Runway 09L Runway length 12799 ft Runway width 164 ft
Runway elevation 79 ft Runway displaced threshold 1007 ft Runway heading 90
Runway 27R Runway length 12799 ft Runway width 164 ft
Runway elevation 78 ft Runway displaced threshold 0 ft Runway heading 270
Runway 09R Runway length 12001 ft Runway width 148 ft
Runway elevation 75 ft Runway displaced threshold 1013 ft Runway heading 90
Runway 27L Runway length 12001 ft Runway width 148 ft
Runway elevation 77 ft Runway displaced threshold 0 ft Runway heading 270

 AIRPORT FREQUENCIES
Type APP Name APP Frequency 119.725 MHZ
Type ATIS Name ATIS Frequency 128.075 MHZ
Type CLD Name CLNC DEL Frequency 121.975 MHZ
Type GND Name GND Frequency 121.7 MHZ
Type TWR Name TWR Frequency 118.475 MHZ

 AIRPORT NEAR NAVIGATION AIDS
Type VOR-DME Name London Frequency 113600 KHZ